Location: Newark
(52.2090°N, 4.1550°W)
Time: 18:11:02
(UTC+00:00)

SR - All Passes

Search period start: 17 October 2019 00:00
Search period end: 27 October 2019 00:00
Orbit: 575 x 881 km, 66.7° (Epoch: 16 October)

Date Brightness Start Highest point End Pass type
(mag) Time Alt. Az. Time Alt. Az. Time Alt. Az.
17 Oct - 00:57:40 10° WSW 01:02:35 41° NW 01:07:56 10° NNE visible
17 Oct - 02:42:09 10° WNW 02:46:12 20° NNW 02:50:26 10° NE visible
17 Oct - 04:26:07 10° NW 04:30:20 21° NNE 04:34:40 10° ENE visible
17 Oct - 06:08:28 10° NNW 06:13:57 41° NE 06:19:32 10° ESE visible
17 Oct - 07:50:36 10° NW 07:56:23 61° WSW 08:02:12 10° SSE daylight
17 Oct - 09:34:49 10° WNW 09:37:27 13° WSW 09:40:05 10° SW daylight
17 Oct - 22:26:35 10° S 22:30:55 30° ESE 22:35:36 10° NE night (unlit)
18 Oct - 00:07:35 10° SW 00:12:41 62° NW 00:18:15 10° NE visible
18 Oct - 01:51:33 10° WNW 01:55:54 24° NNW 02:00:31 10° NNE visible
18 Oct - 03:36:01 10° NW 03:39:59 19° N 03:44:03 10° NE visible
18 Oct - 05:18:48 10° NNW 05:23:52 30° NNE 05:29:04 10° E visible
18 Oct - 07:00:51 10° NW 07:06:45 86° NE 07:12:42 10° SE daylight
18 Oct - 08:43:47 10° WNW 08:48:18 23° WSW 08:52:49 10° SSW daylight
18 Oct - 21:38:33 10° SE 21:41:45 17° ESE 21:45:05 10° ENE night (unlit)
18 Oct - 23:17:50 10° SSW 23:22:56 83° SE 23:28:33 10° NE visible
19 Oct - 01:01:01 10° W 01:05:43 31° NNW 01:10:45 10° NNE visible
19 Oct - 02:45:41 10° NW 02:49:35 19° N 02:53:40 10° NE visible
19 Oct - 04:29:03 10° NNW 04:33:40 24° NNE 04:38:25 10° ENE visible
19 Oct - 06:11:11 10° NW 06:16:58 57° NE 06:22:49 10° ESE visible
19 Oct - 07:53:35 10° NW 07:58:59 39° WSW 08:04:23 10° S daylight
19 Oct - 22:28:32 10° SSW 22:33:23 49° ESE 22:38:44 10° NE night (unlit)
20 Oct - 00:10:41 10° WSW 00:15:39 43° NW 00:21:03 10° NNE visible
20 Oct - 01:55:08 10° WNW 01:59:14 21° NNW 02:03:31 10° NE visible
20 Oct - 03:39:09 10° NW 03:43:22 21° NNE 03:47:42 10° ENE visible
20 Oct - 05:21:33 10° NNW 05:27:01 40° NE 05:32:36 10° ESE visible
20 Oct - 07:03:41 10° NW 07:09:30 63° WSW 07:15:21 10° SSE daylight
20 Oct - 08:47:43 10° WNW 08:50:36 14° WSW 08:53:29 10° SW daylight
20 Oct - 21:39:45 10° S 21:44:03 28° ESE 21:48:41 10° NE night (unlit)
20 Oct - 23:20:37 10° SW 23:25:46 65° NW 23:31:23 10° NE visible
21 Oct - 01:04:32 10° WNW 01:08:57 25° NNW 01:13:37 10° NNE visible
21 Oct - 02:49:02 10° NW 02:53:00 19° N 02:57:06 10° NE visible
21 Oct - 04:31:53 10° NNW 04:36:56 30° NNE 04:42:05 10° E visible
21 Oct - 06:13:57 10° NW 06:19:51 83° NE 06:25:49 10° SE visible
21 Oct - 07:56:48 10° WNW 08:01:26 24° WSW 08:06:04 10° SSW daylight
21 Oct - 20:51:49 10° SE 20:54:53 16° ESE 20:58:05 10° ENE night (unlit)
21 Oct - 22:30:55 10° SSW 22:36:02 80° SE 22:41:40 10° NE night (unlit)
22 Oct - 00:14:01 10° W 00:18:46 32° NNW 00:23:51 10° NNE visible
22 Oct - 01:58:40 10° NW 02:02:37 19° N 02:06:44 10° NE visible
22 Oct - 03:42:07 10° NNW 03:46:43 24° NNE 03:51:26 10° ENE visible
22 Oct - 05:24:17 10° NW 05:30:03 56° NE 05:35:53 10° ESE visible
22 Oct - 07:06:38 10° NW 07:12:06 40° WSW 07:17:35 10° S daylight
22 Oct - 21:41:38 10° S 21:46:30 47° ESE 21:51:49 10° NE night (unlit)
22 Oct - 23:23:41 10° WSW 23:28:43 44° NW 23:34:10 10° NE visible
23 Oct - 01:08:07 10° WNW 01:12:16 21° NNW 01:16:37 10° NE visible
23 Oct - 02:52:12 10° NW 02:56:24 20° NNE 03:00:44 10° ENE visible
23 Oct - 04:34:38 10° NNW 04:40:05 39° NE 04:45:38 10° ESE visible
23 Oct - 06:16:46 10° NW 06:22:37 66° WSW 06:28:28 10° SSE visible
23 Oct - 08:00:39 10° WNW 08:03:45 15° WSW 08:06:51 10° SW daylight
23 Oct - 20:52:54 10° SSE 20:57:10 27° ESE 21:01:45 10° NE night (unlit)
23 Oct - 22:33:39 10° SW 22:38:50 67° NW 22:44:30 10° NE night (unlit)
24 Oct - 00:17:31 10° WNW 00:21:59 25° NNW 00:26:44 10° NNE visible
24 Oct - 02:02:03 10° NW 02:06:02 19° N 02:10:09 10° NE visible
24 Oct - 03:44:57 10° NNW 03:49:59 29° NNE 03:55:07 10° E visible
24 Oct - 05:27:03 10° NW 05:32:57 80° NE 05:38:55 10° SE visible
24 Oct - 07:09:51 10° WNW 07:14:35 25° WSW 07:19:17 10° SSW daylight
24 Oct - 20:05:05 10° SE 20:08:01 15° ESE 20:11:05 10° ENE night (unlit)
24 Oct - 21:43:59 10° SSW 21:49:07 77° SE 21:54:46 10° NE night (unlit)
24 Oct - 23:27:00 10° W 23:31:49 33° NNW 23:36:58 10° NNE night (unlit)
25 Oct - 01:11:40 10° NW 01:15:39 19° N 01:19:48 10° NE visible
25 Oct - 02:55:10 10° NNW 02:59:46 23° NNE 03:04:27 10° ENE visible
25 Oct - 04:37:23 10° NW 04:43:08 54° NE 04:48:57 10° ESE visible
25 Oct - 06:19:43 10° NW 06:25:14 42° WSW 06:30:45 10° S visible
25 Oct - 20:54:45 10° S 20:59:37 45° ESE 21:04:55 10° NE night (unlit)
25 Oct - 22:36:42 10° WSW 22:41:46 46° NW 22:47:17 10° NE night (unlit)
26 Oct - 00:21:05 10° WNW 00:25:19 22° NNW 00:29:43 10° NE visible
26 Oct - 02:05:14 10° NW 02:09:26 20° N 02:13:45 10° ENE visible
26 Oct - 03:47:43 10° NNW 03:53:10 38° NE 03:58:40 10° ESE visible
26 Oct - 05:29:51 10° NW 05:35:44 69° SW 05:41:36 10° SSE visible
26 Oct - 07:13:35 10° WNW 07:16:54 16° WSW 07:20:13 10° SW daylight
26 Oct - 20:06:05 10° SSE 20:10:17 26° ESE 20:14:48 10° NE night (unlit)
26 Oct - 21:46:42 10° SW 21:51:54 70° NW 21:57:36 10° NE night (unlit)
26 Oct - 23:30:29 10° W 23:35:01 26° NNW 23:39:50 10° NNE night (unlit)
